Temp
18 18 17 17 16 16 15 15 14 14 14 15 15 14 14 13 12 12 12 12 13 13 13 13 13 13 13 12 12 12 12 12 12 12 12 12 12 12 12 12 12 12 12 12 12 12 12 12 12 12 12 12 13 13 13 13 13 13 13 13 13 12 12 13 13 14 14 13 13 13 13 13 13 13 13 13 12 12 12 12 12 11 11 11 11
18 18 17 16 16 16 15 15 14 14 14 15 15 14 13 13 12 13 13 13 13 13 13 13 13 13 13 12 12 12 12 12 12 12 12 12 12 12 12 12 12 12 12 12 12 12 12 12 12 12 12 12 12 12 13 13 13 13 13 13 13 12 12 12 13 13 13 13 13 13 13 13 13 13 13 13 12 12 12 12 12 11 11 11 11
18 17 17 16 16 16 15 15 14 14 14 15 14 14 13 13 12 13 13 13 13 13 13 13 13 13 13 13 13 13 12 12 12 12 12 12 12 12 12 12 12 12 12 12 12 12 12 12 12 12 12 12 12 12 12 13 13 13 13 13 12 12 12 12 12 13 13 13 13 13 13 13 13 13 13 12 12 12 12 12 11 11 11 11 11
18 17 17 16 15 15 15 15 14 14 14 14 14 13 13 13 13 13 13 13 13 13 13 13 13 13 13 13 13 13 13 12 12 12 12 12 12 12 12 12 12 13 13 12 12 12 12 12 12 12 12 12 12 12 12 12 12 12 12 13 13 12 12 12 12 12 13 13 13 13 13 13 13 12 12 12 12 12 12 11 11 11 11 11 11
17 17 16 16 15 15 15 14 14 14 14 14 13 13 13 13 14 14 14 14 13 13 13 13 13 13 13 13 13 13 13 12 12 12 12 12 12 12 12 12 12 12 12 12 12 12 12 12 12 12 12 12 12 12 12 12 12 12 12 12 12 12 12 12 12 12 13 13 13 13 13 13 12 12 12 12 11 11 11 11 11 11 11 11 11
16 16 16 15 15 15 15 14 14 14 14 13 13 13 13 14 14 14 14 14 14 13 13 13 13 13 13 13 13 13 13 13 12 12 12 12 12 12 12 12 12 12 12 12 12 12 12 12 12 12 12 12 12 11 11 11 12 11 11 12 12 12 12 12 12 13 13 13 13 13 13 12 12 12 12 11 11 11 11 11 11 11 11 11 11
16 16 16 15 15 15 14 14 14 14 13 13 13 13 13 14 14 14 14 14 14 14 14 13 13 13 13 13 13 13 13 13 12 12 12 12 12 12 12 12 12 12 12 12 12 11 11 11 11 11 11 11 10 10 11 11 11 11 11 11 11 11 12 12 12 13 13 13 13 12 12 12 12 11 11 11 11 11 10 10 11 11 11 11 11
16 16 16 16 15 15 15 14 14 14 13 13 13 13 13 14 14 14 14 14 14 14 14 13 13 14 13 13 13 13 12 12 12 12 12 12 12 11 11 11 12 11 11 11 11 11 11 11 10 10 10 10 10 10 10 10 11 11 10 10 10 11 11 12 12 12 13 13 12 12 12 12 11 11 11 10 10 10 10 10 11 11 10 11 11
16 16 16 16 15 15 15 14 14 13 13 13 13 13 13 14 14 14 14 14 14 14 14 13 13 13 13 13 13 12 12 12 12 12 12 12 11 11 11 11 11 11 11 11 11 11 11 10 10 10 10 10 10 10 10 10 10 10 9 9 10 10 11 11 11 12 12 12 12 12 11 11 11 10 10 10 10 9 10 10 10 11 10 11 11
17 17 16 16 15 15 14 14 13 13 13 13 13 13 13 13 14 14 14 14 14 14 13 13 13 13 13 13 12 12 12 12 12 12 12 11 12 12 11 12 12 12 12 11 11 11 10 9 9 10 10 10 10 10 10 10 10 9 9 9 9 9 9 10 11 11 11 12 11 11 11 11 10 10 10 9 9 9 9 10 10 10 10 10 11
17 17 17 16 16 15 15 14 13 13 13 13 13 13 13 13 13 14 14 14 14 13 13 13 13 13 13 12 12 12 11 11 11 11 11 11 12 12 12 12 12 12 11 11 11 11 10 10 10 9 9 9 9 10 10 10 10 9 9 9 9 9 9 9 9 10 10 11 11 11 10 10 10 10 9 9 9 9 9 9 10 10 10 11 11
18 17 17 16 16 15 14 14 13 13 12 12 13 13 13 13 14 14 14 13 13 13 13 13 13 13 12 12 12 11 10 10 10 10 11 11 11 11 12 12 12 12 12 11 11 11 11 10 10 9 9 9 9 10 10 10 9 9 9 9 9 9 8 8 8 9 9 9 10 10 10 9 9 9 9 8 8 8 9 9 10 10 10 10 11
18 18 17 16 16 14 13 13 13 12 12 12 12 12 13 13 14 14 14 13 13 13 13 13 13 12 12 12 11 10 9 10 10 10 10 10 11 11 12 12 12 12 12 12 11 11 11 11 10 10 9 9 9 10 10 10 10 10 10 9 9 9 9 9 8 8 8 8 10 10 9 9 9 9 8 8 8 8 8 9 10 10 10 11 11
18 18 17 16 15 14 13 13 12 12 12 12 12 12 13 14 14 14 13 13 13 13 13 12 12 12 12 12 11 10 9 9 9 9 10 10 10 11 12 11 11 11 11 11 11 11 11 11 11 10 9 9 10 10 10 10 10 10 10 10 9 9 9 9 8 8 8 8 9 9 9 8 8 8 8 8 8 8 8 8 9 10 10 11 11
17 17 16 16 15 14 13 12 12 12 12 12 12 13 13 14 14 14 13 13 13 13 12 12 12 12 12 12 11 9 9 9 9 9 9 9 10 11 11 11 11 11 11 11 11 11 11 11 11 10 9 9 10 10 10 10 10 11 11 11 11 10 10 9 9 9 8 8 8 9 8 8 8 8 8 8 8 8 8 9 9 10 10 11 11
15 15 15 15 14 14 13 12 12 12 12 12 13 13 14 14 14 13 13 13 13 12 12 12 12 12 12 12 10 9 9 9 9 9 9 9 10 10 10 10 10 10 10 10 10 10 10 10 10 10 9 9 10 10 10 10 10 11 12 12 12 11 11 10 10 9 9 9 8 9 9 9 9 8 8 8 8 8 8 9 10 10 10 11 11
14 14 14 14 14 13 13 12 12 12 12 12 13 14 14 14 14 13 13 13 13 12 12 12 12 11 12 11 10 9 9 9 9 9 9 9 9 10 10 10 10 10 10 10 10 10 10 10 10 10 10 10 10 10 10 10 10 11 12 12 12 12 11 10 10 10 9 9 9 9 9 9 9 9 9 9 9 8 8 9 9 10 10 10 11
13 13 13 13 14 13 13 13 12 13 13 13 13 14 14 14 13 13 13 13 13 12 12 12 11 11 11 10 9 9 9 9 9 9 9 9 9 9 10 11 11 10 10 10 10 10 9 9 10 10 9 10 10 10 10 10 11 11 11 11 12 12 11 10 10 10 10 10 10 10 10 10 10 10 9 9 9 9 9 9 9 9 10 10 10
14 13 13 13 13 13 13 13 13 13 13 13 14 14 14 14 13 13 13 13 12 12 12 12 12 11 11 9 9 9 9 8 8 9 9 9 9 9 10 11 11 10 10 10 10 10 9 9 9 9 9 10 10 10 10 10 10 10 11 11 11 11 10 10 10 10 10 10 11 11 10 10 10 10 10 10 10 9 9 9 9 9 9 10 10
14 13 13 13 13 13 13 13 13 13 13 14 15 14 14 13 13 13 13 13 12 12 12 11 11 10 9 8 8 8 8 8 8 8 9 9 9 9 10 11 11 11 11 11 11 10 10 9 9 9 9 10 10 10 10 10 10 10 10 10 11 10 10 9 9 9 10 11 11 11 11 11 10 10 10 10 10 9 9 9 9 9 9 10 10
14 13 13 13 13 12 12 13 13 13 13 14 14 13 13 13 12 12 12 12 11 11 10 9 9 8 8 8 8 7 8 8 8 8 9 9 9 9 9 10 11 11 11 11 12 11 11 10 10 10 10 10 10 10 10 10 10 9 9 10 10 9 9 9 9 9 10 11 11 11 11 11 11 11 10 10 10 10 9 9 9 9 9 10 10
13 13 12 12 12 12 12 12 12 12 13 13 13 13 12 12 11 11 11 10 10 9 9 8 8 8 8 8 8 7 7 8 8 8 8 9 9 9 9 10 11 11 12 12 12 12 12 11 10 10 10 10 10 10 10 10 9 9 9 9 9 9 9 9 9 10 11 11 11 11 11 11 11 11 10 10 10 10 10 9 9 9 10 10 10
12 13 12 12 12 12 12 12 12 12 12 12 12 12 11 10 10 10 9 9 9 9 9 9 9 9 9 9 8 8 8 8 8 8 8 8 9 9 8 8 10 11 11 12 13 13 13 11 10 10 10 10 10 10 9 9 9 9 9 9 9 9 9 9 10 10 11 11 11 11 11 11 11 11 10 10 10 10 10 10 9 10 10 10 10
13 13 13 12 11 11 11 11 11 11 11 11 11 11 10 10 10 10 10 10 10 10 10 10 10 10 9 9 9 9 8 8 8 8 8 8 8 8 8 8 9 10 10 11 12 12 12 11 10 9 9 9 9 9 9 9 9 9 9 9 9 9 10 10 10 11 11 11 11 11 11 11 11 10 10 10 10 10 10 10 10 10 10 10 10
12 12 12 12 11 11 11 11 11 11 11 11 11 11 10 10 11 10 10 10 10 10 10 10 10 10 10 10 10 9 9 9 8 8 8 8 8 8 8 8 9 9 9 9 10 10 10 10 9 9 9 9 9 9 9 9 9 9 9 9 9 9 10 11 11 11 11 11 11 11 11 11 11 10 10 10 10 10 10 10 10 10 10 10 11
11 11 11 11 11 11 11 11 11 11 11 11 11 11 11 11 11 11 11 11 11 11 11 11 11 11 10 10 10 10 10 10 9 8 8 8 8 8 8 8 8 9 9 9 8 8 8 9 9 9 9 8 8 8 8 8 9 9 9 9 9 10 10 11 11 11 11 11 11 11 11 11 11 10 10 11 11 11 10 10 10 10 10 11 11
11 10 10 10 10 10 10 10 10 11 11 11 11 11 11 11 11 11 11 11 11 11 11 11 11 11 11 11 11 11 10 10 10 9 8 8 8 7 8 7 7 8 8 8 8 8 8 8 9 8 8 8 8 8 8 8 8 9 9 9 10 10 11 11 10 10 11 11 11 11 11 11 11 11 11 11 11 11 11 10 10 10 11 11 11
11 11 10 10 10 10 10 10 10 11 11 11 11 11 11 11 11 11 11 11 11 11 12 11 11 12 12 12 11 11 11 11 11 10 8 8 8 8 8 7 7 7 8 8 9 9 9 9 8 8 8 8 8 9 9 9 9 10 10 10 11 11 11 10 10 10 10 11 11 11 11 11 11 11 11 11 11 11 11 11 10 10 11 11 11
11 11 10 10 10 10 10 10 10 10 11 11 11 11 11 11 11 11 11 11 11 12 12 12 12 12 12 12 11 11 11 11 11 10 9 9 9 9 8 8 8 8 8 9 9 10 9 9 9 9 9 9 9 10 10 10 11 11 11 11 12 12 12 11 11 11 11 11 11 10 11 11 11 11 11 11 11 10 10 10 10 11 11 11 11
11 10 10 10 10 10 9 9 10 10 10 11 11 11 11 11 11 11 11 11 11 12 12 12 12 12 12 12 12 12 12 12 11 11 10 9 9 9 9 9 9 9 9 9 9 10 10 10 10 10 10 11 11 11 12 12 12 12 12 12 11 12 12 12 12 12 11 11 10 10 10 10 10 11 11 11 10 10 10 11 11 11 11 11 11
11 11 10 10 9 9 9 9 9 10 10 11 11 11 11 10 11 11 11 11 11 11 11 11 11 11 12 12 12 12 12 12 12 11 10 9 9 9 9 9 9 9 9 9 9 9 10 10 11 11 11 12 12 12 12 13 13 12 13 12 12 12 12 11 11 11 11 11 11 11 10 10 10 10 10 10 10 10 10 11 11 11 11 11 11
12 11 10 10 9 9 9 9 10 10 10 11 12 11 11 10 10 10 10 11 11 10 11 11 11 11 11 10 10 11 11 11 11 10 10 9 9 9 9 9 9 9 8 8 9 9 10 10 11 11 12 12 12 13 13 13 13 12 12 12 12 12 12 11 11 11 11 11 11 11 10 10 10 10 10 10 10 10 11 11 11 11 11 11 11
12 12 11 10 9 9 9 9 10 10 11 11 12 11 11 11 10 9 9 9 10 10 10 10 10 10 10 9 9 9 9 10 10 10 9 9 9 8 8 8 8 8 8 8 8 9 10 10 11 12 12 12 13 13 13 12 13 13 13 12 12 12 12 12 11 11 11 11 10 10 10 11 11 11 10 10 10 11 11 10 11 11 11 11 11
13 12 11 10 9 9 9 10 10 11 11 11 12 12 12 11 10 8 8 8 8 8 9 9 9 9 9 9 8 8 9 8 8 8 8 8 8 8 8 8 7 7 7 8 8 9 9 10 11 12 12 13 13 13 13 13 13 13 13 13 12 12 12 12 11 11 11 11 11 11 11 11 11 11 11 11 11 11 11 11 11 11 11 11 11
14 13 11 10 10 10 10 10 10 11 11 11 12 12 12 11 10 10 9 8 8 8 8 8 8 8 8 8 7 7 8 8 7 7 7 7 7 7 7 7 6 6 7 7 8 9 9 10 11 12 12 13 13 13 13 13 12 12 12 12 12 12 12 12 12 12 11 11 11 11 11 11 11 10 10 10 11 11 11 11 11 11 11 10 10
14 12 11 10 10 10 10 10 10 11 11 11 12 12 11 11 11 11 9 8 9 9 8 7 7 7 7 7 7 7 7 7 7 6 6 6 6 6 6 6 6 7 7 7 8 8 9 10 10 11 12 12 13 13 13 12 12 12 12 12 12 12 12 12 12 12 11 11 11 11 10 10 10 10 10 11 11 11 11 11 11 11 10 10 10
13 12 10 10 10 10 10 10 10 11 11 11 11 11 10 11 11 11 10 9 9 9 8 7 6 6 6 6 6 6 6 6 6 6 6 6 6 5 6 6 7 8 8 8 8 8 9 9 10 11 12 12 12 12 12 12 12 12 12 12 12 12 12 12 11 11 11 11 10 10 10 10 11 11 11 11 11 11 11 11 11 10 10 10 10
13 12 11 10 10 10 10 10 10 10 10 11 11 11 10 10 10 9 9 8 8 8 7 6 6 6 6 6 6 6 6 6 6 6 6 6 6 6 6 7 8 8 9 9 9 9 9 10 10 11 11 12 12 12 12 12 12 12 12 12 12 11 11 11 11 10 10 10 10 10 11 11 11 11 11 11 11 11 11 11 11 10 10 10 10
13 12 11 11 11 11 11 10 10 10 10 10 10 11 10 10 9 8 8 7 7 8 8 7 6 6 7 6 6 6 6 6 6 6 6 6 6 6 6 7 7 8 9 9 10 10 10 10 10 11 11 11 12 12 11 11 11 11 11 11 11 11 11 11 11 10 11 11 11 11 11 11 11 11 11 11 11 11 11 11 11 10 10 10 10
13 12 11 11 10 11 10 10 10 9 9 10 10 10 9 9 9 9 9 8 8 9 9 8 7 7 7 7 7 7 6 6 7 7 7 7 7 6 7 7 7 8 8 9 9 10 10 10 11 11 11 11 11 11 11 11 11 11 11 11 11 11 11 10 10 11 11 11 11 11 11 11 11 11 11 11 11 11 10 10 10 10 10 10 10
12 11 10 10 10 10 10 10 10 9 9 9 9 9 9 9 9 9 9 9 9 8 8 8 8 7 7 7 8 8 7 7 7 7 7 7 7 7 7 7 7 7 8 8 9 9 10 10 10 11 11 10 10 10 11 11 11 11 10 10 10 10 10 10 10 10 10 10 10 10 10 10 10 10 10 10 10 10 10 10 10 10 10 9 9
11 10 9 9 9 10 10 10 9 9 9 9 9 9 9 9 9 9 9 8 8 8 8 8 8 8 8 7 8 8 8 7 7 7 7 7 7 7 7 7 7 7 8 8 9 9 9 10 10 10 10 10 10 10 10 10 10 10 10 10 10 10 10 10 10 10 10 10 10 10 10 9 9 9 9 9 9 9 9 9 9 9 9 8 8
10 9 8 9 9 9 9 9 8 8 8 8 9 9 9 9 9 9 8 8 8 8 8 8 8 8 8 7 7 8 8 7 8 7 7 7 7 7 7 7 7 7 8 8 8 9 9 9 9 9 9 10 10 10 10 10 9 9 9 9 9 10 10 10 10 10 9 9 9 9 9 8 8 8 8 8 8 9 8 8 8 8 8 8 7
9 8 8 8 8 8 8 8 8 7 7 8 8 8 9 9 9 9 8 8 8 8 8 8 8 8 8 7 7 7 7 7 8 8 8 8 7 7 7 7 7 8 8 8 8 8 9 9 9 9 9 9 9 9 9 9 9 9 9 9 9 9 9 9 8 8 8 8 7 7 7 7 7 7 7 8 8 7 7 7 7 7 6 6 6
8 7 7 7 7 7 7 7 7 7 7 8 8 9 9 9 9 9 8 8 8 8 8 8 8 8 7 7 7 7 7 7 7 7 8 8 7 7 7 8 8 8 8 8 8 8 8 8 8 8 9 9 9 9 9 8 8 8 8 8 8 7 7 7 7 7 6 6 5 5 5 6 6 6 6 6 6 6 6 6 6 5 5 5 5
7 7 6 6 6 6 6 7 7 7 7 8 8 9 8 9 9 9 8 8 8 8 8 8 8 7 7 7 7 7 7 7 7 7 7 7 7 8 8 8 8 8 8 8 8 8 8 8 8 8 8 8 8 8 8 8 7 7 7 7 7 7 6 6 5 5 4 4 4 4 4 4 4 5 5 5 5 4 4 4 4 4 4 4 4
6 6 6 6 6 6 6 6 7 7 7 8 8 8 8 9 9 8 8 7 7 7 7 7 7 7 7 7 6 7 7 7 7 7 7 8 8 7 7 7 8 8 8 8 8 8 8 8 8 8 8 8 7 7 7 6 6 6 6 6 6 5 5 4 4 4 3 3 3 3 3 3 4 4 4 3 3 3 3 3 3 3 3 3 3
6 6 6 6 6 6 6 6 6 7 7 7 7 7 7 8 7 7 6 6 6 6 7 7 7 7 7 6 6 7 7 7 7 7 7 7 7 7 7 8 8 8 8 8 7 7 7 7 7 7 7 7 6 6 5 5 5 5 5 5 4 4 4 3 3 3 3 3 3 2 2 2 3 2 2 2 2 2 2 2 2 2 2 2 2
6 6 6 6 6 6 6 6 6 6 7 6 6 6 6 6 6 6 6 6 6 6 7 7 7 7 7 7 7 7 7 7 7 7 7 7 7 8 8 8 8 8 8 7 7 6 6 6 6 6 6 6 5 5 4 4 4 4 3 3 3 3 3 3 3 2 2 2 2 2 1 1 1 1 1 1 1 1 1 1 1 0 0 0 1
7 7 7 7 7 7 6 6 6 6 6 6 6 5 5 5 6 6 6 6 6 6 7 7 7 7 7 7 7 7 7 8 8 8 7 8 8 8 8 8 8 7 7 6 6 6 6 6 6 5 5 4 4 4 4 3 3 3 2 2 2 2 2 2 2 1 1 1 1 1 0 -0 -0 -0 -0 0 0 -0 -1 -1 -1 -1 -1 -0 -0
6 6 6 7 7 7 6 7 7 7 6 6 6 6 6 6 6 6 6 6 7 7 7 7 7 7 7 7 8 8 8 8 8 8 8 8 8 8 8 7 7 6 6 5 5 6 5 5 4 4 3 3 3 2 2 2 2 2 2 2 1 1 1 1 1 1 1 1 0 -0 -1 -1 -1 -1 -1 -1 -1 -2 -2 -2 -2 -2 -1 -1 -1
Height
784 787 790 793 796 799 802 805 807 809 810 812 814 816 818 821 823 825 827 829 831 833 836 837 838 839 840 841 842 843 843 844 845 846 847 848 849 851 852 853 854 854 855 856 856 856 856 856 857 857 858 859 859 859 859 859 858 857 857 856 855 855 854 853 851 849 848 847 845 843 841 838 835 833 830 826 823 821 818 815 813 810 809 807 804
783 786 789 792 795 798 801 804 806 808 809 812 814 816 818 820 823 825 826 828 830 833 835 836 838 839 840 841 842 843 844 845 846 847 848 849 850 851 852 853 855 855 856 857 857 857 857 857 858 859 859 860 860 860 860 860 859 858 857 857 856 856 855 854 853 851 849 847 845 843 841 839 836 834 831 827 824 821 818 816 813 811 809 807 804
782 786 789 792 795 798 801 803 805 807 808 811 814 816 818 820 823 825 826 828 830 833 835 836 837 838 840 841 842 843 844 845 846 847 848 849 850 851 853 854 855 856 857 858 857 858 858 859 859 860 860 861 861 861 860 860 860 859 858 858 858 857 856 855 854 852 850 848 846 844 841 840 837 835 832 829 825 821 819 816 814 812 810 807 804
782 786 789 792 795 797 799 801 804 806 808 811 814 816 819 821 823 825 826 828 830 833 834 836 837 838 839 841 842 843 844 845 846 847 848 849 850 852 853 855 856 857 857 858 858 858 859 860 860 861 861 861 861 862 861 861 860 860 859 859 859 858 857 856 855 854 852 849 846 845 842 840 838 836 833 830 826 823 820 817 815 813 810 808 804
783 786 789 792 794 796 798 800 803 805 808 811 814 817 819 821 823 825 826 827 829 832 834 835 837 838 839 840 841 843 844 845 846 847 848 849 851 852 853 855 856 856 857 857 858 859 860 861 862 862 862 862 862 862 862 862 861 861 860 860 859 859 857 856 855 854 852 850 847 845 843 841 839 837 834 831 827 824 821 818 816 813 811 808 805
783 786 788 791 793 795 797 799 802 805 809 812 814 817 819 821 823 824 825 827 828 831 833 835 836 838 839 840 841 843 844 845 846 847 849 850 851 852 853 855 856 856 857 857 858 860 861 862 862 863 863 863 863 863 863 863 862 862 862 861 860 859 858 857 856 854 852 850 848 846 844 842 840 837 835 832 828 825 822 819 816 814 811 808 806
782 785 788 790 792 794 796 798 801 805 809 812 814 817 819 821 823 824 825 826 828 830 832 834 836 837 838 840 841 843 844 845 847 848 849 850 851 852 853 854 855 856 857 858 859 860 861 862 863 863 863 863 863 864 863 863 863 863 862 862 861 860 859 857 856 854 852 850 848 847 844 843 841 838 836 833 830 827 824 820 817 814 811 809 806
782 784 787 789 791 793 796 799 802 805 809 812 814 816 818 820 822 823 824 826 828 830 831 833 835 836 838 840 841 843 844 845 847 848 849 850 851 852 854 854 855 856 857 858 860 861 862 863 863 863 863 863 863 863 863 863 863 864 863 862 862 861 859 858 856 854 852 850 849 847 845 844 841 839 837 833 830 828 825 822 818 815 812 809 807
780 783 785 787 790 792 796 799 803 806 809 812 814 815 818 820 821 822 824 825 827 829 831 833 834 836 838 839 841 843 844 846 847 848 849 850 851 853 854 854 855 856 857 859 860 862 863 863 864 864 864 864 864 863 863 863 863 864 863 863 862 862 861 859 857 855 853 851 850 848 846 845 842 840 837 834 832 829 827 824 821 817 814 810 808
779 781 783 786 789 792 795 799 802 805 808 811 812 814 817 819 820 822 823 825 827 828 830 832 834 835 837 839 841 842 844 845 846 848 849 850 852 853 854 855 856 856 857 859 861 862 863 864 864 864 864 865 864 864 864 864 863 863 863 863 863 862 862 860 859 857 854 852 850 849 847 846 844 842 840 837 834 831 828 824 821 818 815 811 807
776 779 782 785 788 791 795 798 801 804 807 809 811 813 816 818 820 821 823 825 826 828 830 831 833 835 836 838 840 842 843 845 846 848 849 851 852 853 854 855 856 857 858 860 861 862 863 864 864 865 865 865 865 864 864 864 864 864 864 863 863 863 862 861 860 858 855 853 851 850 849 847 846 844 842 839 835 832 829 826 822 819 815 811 807
774 777 780 784 787 791 794 796 799 802 805 808 810 813 816 818 819 821 823 824 826 827 829 831 832 834 836 838 840 841 842 844 846 848 849 850 851 853 854 855 856 857 859 860 862 863 864 864 865 865 865 865 864 864 864 864 864 864 864 863 863 863 862 861 860 858 856 854 852 851 850 849 847 845 843 840 837 833 830 827 824 821 818 814 810
773 776 779 783 786 789 792 794 797 801 804 807 809 812 815 817 819 821 822 824 825 827 828 830 831 833 835 837 839 840 841 843 845 847 848 849 851 852 854 855 856 857 859 861 862 863 864 864 864 865 865 865 864 864 864 864 863 863 863 862 862 863 862 861 860 858 856 855 853 852 851 850 848 846 844 841 838 835 831 828 825 822 819 816 813
771 775 779 782 785 788 790 792 796 800 803 806 809 812 815 816 818 820 822 824 825 826 828 829 831 833 834 836 838 839 840 843 845 846 848 849 851 852 854 855 856 857 859 861 862 863 864 864 864 864 865 864 863 863 863 863 863 862 862 862 862 862 861 861 860 858 856 855 854 853 852 850 848 846 844 842 839 836 833 829 826 823 821 817 815
772 775 778 781 784 786 789 792 795 798 802 805 808 811 814 815 817 819 821 823 825 826 827 829 830 832 834 836 837 838 839 842 844 846 848 850 851 853 854 855 856 858 859 861 862 863 863 863 864 864 864 863 862 862 862 862 862 862 862 862 862 861 861 861 860 858 857 855 854 853 851 850 848 846 844 841 839 837 834 831 828 825 821 818 816
773 775 777 780 783 785 788 791 794 798 801 804 807 810 812 814 817 819 821 823 824 825 827 829 830 832 833 835 836 837 839 841 843 845 848 850 852 854 855 856 856 858 859 861 862 862 863 863 863 864 863 863 862 862 861 861 861 861 862 862 861 861 861 860 859 857 856 855 853 852 850 848 846 844 842 840 838 836 833 831 829 826 822 818 815
772 773 776 779 781 784 786 789 793 797 801 804 807 809 811 813 816 818 820 822 823 825 826 828 830 831 833 834 835 836 838 840 842 844 846 849 851 854 855 856 857 858 859 860 861 862 862 862 862 863 863 862 861 861 861 861 861 861 862 861 861 860 860 859 858 856 855 853 851 849 847 846 844 842 841 839 838 836 833 831 828 826 822 819 816
770 772 776 778 781 784 786 789 792 796 800 803 806 808 810 812 815 817 819 821 822 824 825 827 829 831 832 833 834 835 837 839 841 843 844 846 849 852 854 856 857 858 859 860 861 861 861 861 861 862 862 861 861 860 860 861 861 861 861 861 860 860 859 858 857 855 854 851 849 848 846 844 843 841 840 839 837 836 834 831 829 826 824 821 817
769 772 775 777 780 784 787 789 791 794 798 801 804 806 809 812 814 816 819 820 822 823 825 826 828 830 832 833 834 835 837 839 841 842 843 845 847 850 853 855 856 857 858 859 860 860 860 861 861 861 860 860 860 860 860 860 860 861 861 860 859 859 858 858 856 855 853 850 849 847 846 844 843 842 840 839 837 836 834 832 830 828 825 822 819
769 772 774 777 780 783 786 789 790 793 797 800 802 805 808 810 813 816 818 819 821 823 825 826 828 830 832 833 834 835 837 838 840 842 843 845 846 848 851 853 855 856 857 858 859 859 859 860 860 860 860 859 859 859 859 860 860 860 861 860 859 859 858 857 855 853 851 850 849 847 846 845 843 842 840 839 837 836 834 832 830 828 826 823 821
767 770 773 777 781 783 785 788 791 793 797 800 803 806 808 810 813 814 816 817 819 822 825 827 829 831 832 834 835 836 837 838 840 842 843 845 846 848 850 852 854 855 856 857 857 858 858 859 859 859 859 859 858 859 859 859 859 860 860 860 859 858 857 856 854 851 851 850 848 847 846 844 843 841 840 839 837 835 833 832 830 828 826 824 822
766 769 773 777 781 783 786 788 791 794 797 800 803 806 809 810 812 813 815 817 820 823 825 827 830 831 832 834 835 835 837 838 839 841 843 844 846 848 849 850 852 854 855 855 855 856 857 857 857 858 858 858 858 858 858 859 859 859 860 859 859 858 857 855 853 851 851 850 848 847 846 844 843 841 840 838 837 835 833 831 830 828 826 825 823
766 770 774 777 780 783 786 789 791 794 796 799 803 806 808 810 812 814 816 818 821 823 825 827 829 830 831 833 834 835 837 838 839 840 842 843 845 847 848 849 851 852 853 854 854 855 855 855 855 857 857 857 857 858 858 858 859 859 859 859 858 857 856 854 852 851 851 849 848 847 845 844 843 842 840 839 836 835 833 831 829 828 826 824 822
765 768 773 776 779 782 785 789 792 794 796 799 803 806 808 810 812 814 816 818 821 822 824 826 827 829 830 832 833 835 836 837 838 839 841 842 844 846 848 849 850 850 851 853 853 853 853 853 854 856 857 856 857 857 857 858 858 858 858 858 857 856 854 853 852 851 850 849 848 846 845 844 843 842 841 839 837 835 833 831 829 827 825 823 822
764 767 772 776 779 781 784 788 791 794 796 799 802 804 806 808 810 813 815 817 819 820 822 824 825 827 829 830 831 833 834 836 837 838 840 842 844 846 847 849 849 850 850 851 852 852 852 853 854 856 856 856 856 856 857 857 857 857 857 857 856 855 853 852 852 851 849 848 847 846 845 844 843 842 841 839 837 835 833 831 829 827 825 823 821
764 768 771 775 778 780 783 787 791 793 795 798 800 802 804 806 809 811 813 815 817 818 820 822 823 825 827 828 829 831 832 834 835 837 839 841 843 845 846 848 849 849 849 850 851 852 852 853 854 855 855 855 855 855 856 856 856 856 856 856 855 854 853 852 852 850 849 848 847 846 845 844 843 842 841 839 837 835 833 831 829 827 824 822 820
764 767 770 774 777 780 783 786 790 793 795 797 799 801 803 805 807 809 811 813 814 816 818 819 821 823 824 826 827 829 830 832 833 834 837 839 841 843 845 846 848 848 849 850 851 852 852 853 853 854 854 854 854 854 854 855 855 855 855 854 853 853 852 852 852 850 849 848 847 846 845 844 843 841 840 838 836 835 833 832 829 827 825 822 819
764 767 770 773 776 779 782 785 789 791 794 796 798 800 802 804 805 807 808 810 812 814 815 817 818 820 822 823 825 826 827 829 830 831 834 836 838 841 843 844 846 847 848 849 851 851 852 852 853 853 853 853 853 853 853 853 853 853 853 852 852 851 851 851 850 850 849 847 847 846 844 843 842 841 839 837 836 835 833 831 830 827 825 822 819
764 767 769 772 776 779 782 785 787 790 792 795 797 799 801 802 804 805 807 809 811 812 814 815 817 819 820 821 823 824 825 826 827 829 831 833 836 838 840 842 843 845 846 848 849 850 851 851 852 852 852 852 851 851 851 851 851 851 851 851 851 850 849 849 848 848 847 847 846 845 844 843 842 840 838 837 836 835 833 831 829 827 825 822 820
763 766 769 772 775 777 780 783 786 788 790 793 796 797 799 801 803 804 806 808 810 811 812 814 816 817 819 820 821 821 822 823 825 827 829 832 835 837 838 840 841 843 844 846 848 848 848 849 849 849 849 849 849 848 848 847 847 848 848 848 849 849 848 848 847 847 846 846 846 845 844 843 841 840 838 837 836 834 832 831 829 827 825 822 820
762 765 768 771 773 776 779 782 784 787 789 792 794 795 798 800 801 803 805 807 808 810 811 813 815 816 817 818 818 819 820 822 823 825 828 831 833 835 836 838 840 841 843 845 846 847 846 847 847 847 847 847 846 846 846 845 845 846 846 846 847 847 847 847 846 846 846 846 845 844 843 842 841 840 838 837 836 834 832 830 828 826 824 822 820
761 764 767 770 772 775 778 780 783 785 788 790 792 794 796 798 800 801 803 805 807 809 810 812 813 814 816 816 817 818 820 822 823 825 827 830 833 834 836 837 839 840 842 844 845 845 845 846 846 845 845 844 844 844 844 844 844 844 844 844 845 845 845 845 845 845 845 845 844 844 843 842 840 839 838 836 835 833 831 830 828 826 824 822 821
760 763 765 768 771 774 777 779 781 783 786 788 790 791 794 796 798 800 802 804 806 808 810 811 813 814 815 816 817 819 822 824 825 826 828 830 832 834 835 837 838 839 841 843 844 844 844 844 844 843 842 842 842 842 842 843 843 843 842 842 843 843 843 844 844 844 844 844 843 842 841 840 839 838 837 835 834 832 830 829 827 825 823 822 821
759 761 763 766 769 772 775 777 779 781 783 785 787 789 791 794 797 799 801 803 805 807 809 811 812 813 815 816 818 820 823 825 826 828 829 830 832 834 835 837 838 839 840 842 842 843 843 842 842 841 840 840 839 840 840 841 841 841 841 841 841 841 842 842 842 842 842 842 841 840 840 839 838 837 836 834 833 831 830 828 826 824 823 822 820
758 759 761 764 767 770 772 775 777 779 781 783 784 786 788 792 795 798 800 801 804 806 808 811 812 813 815 816 818 821 823 825 827 829 830 831 833 834 836 837 838 839 840 841 841 841 841 841 841 840 839 838 838 838 838 839 840 840 840 840 840 841 840 840 841 840 840 840 840 839 839 838 837 836 835 833 832 830 829 827 825 824 823 822 820
757 759 761 763 767 769 771 773 776 778 780 782 784 785 787 790 793 796 798 801 803 805 808 810 812 813 815 816 818 820 823 826 828 830 831 832 833 834 836 837 838 838 839 839 840 840 840 840 839 839 838 837 837 837 837 838 838 838 839 839 839 839 839 839 839 839 839 839 839 839 838 837 836 835 834 832 830 829 827 826 824 823 822 821 819
757 759 760 763 766 769 771 773 776 778 779 781 783 785 787 789 791 794 797 799 801 804 806 808 810 813 814 816 817 818 820 823 826 830 832 833 834 835 836 837 837 837 838 838 838 838 839 839 838 838 837 837 836 836 836 836 837 837 838 838 838 838 838 838 838 838 838 838 838 837 836 835 834 833 831 829 827 826 825 824 823 822 821 819 818
756 758 760 763 765 768 770 773 775 777 779 781 782 784 786 789 791 792 795 797 799 802 804 806 808 811 812 814 815 817 818 820 822 825 828 832 834 835 836 836 836 836 836 836 837 837 837 837 837 837 837 836 836 836 836 836 836 836 836 837 837 837 837 837 837 837 837 837 836 835 834 833 831 830 829 827 826 824 823 822 821 820 819 817 816
756 757 759 762 765 767 770 772 775 776 778 780 781 783 786 788 790 792 794 797 799 801 803 804 806 808 809 811 813 815 817 818 819 820 823 827 831 833 835 835 835 834 835 835 835 835 835 835 836 836 835 835 835 835 835 835 836 836 835 835 835 835 836 836 836 836 836 835 834 833 832 831 830 829 827 826 824 823 821 820 819 818 816 815 813
756 757 759 762 765 767 769 771 774 776 777 779 781 783 785 787 788 790 793 795 798 800 801 802 803 805 806 808 809 811 813 815 815 817 819 823 826 829 831 832 833 833 833 834 834 834 834 835 835 834 834 834 834 834 835 835 835 835 835 835 835 835 835 835 835 835 834 834 833 832 831 830 829 827 826 824 823 821 820 818 817 816 814 813 811
756 758 759 762 765 767 769 771 773 774 776 779 780 782 784 785 787 788 790 793 796 798 799 800 802 803 804 806 807 809 811 812 813 815 817 819 822 825 827 828 829 830 831 832 833 833 834 834 834 834 833 834 834 834 834 834 834 833 833 834 834 834 834 834 833 833 833 832 832 831 830 829 827 826 824 822 821 820 818 817 815 814 812 811 810
756 758 759 762 765 766 768 770 772 773 775 777 779 781 783 785 786 788 789 792 795 797 798 799 801 803 804 805 807 810 812 813 813 815 816 818 820 822 823 825 826 827 828 829 830 831 832 832 832 833 833 833 833 833 833 833 832 832 832 832 832 833 832 832 832 831 831 830 830 829 828 827 825 824 823 821 820 818 817 816 814 813 812 810 809
755 757 760 762 764 766 768 770 771 772 774 776 778 780 782 784 786 787 789 791 793 795 796 798 800 802 803 805 807 810 812 813 814 814 816 817 818 820 821 823 824 824 825 826 828 829 830 831 831 832 832 832 832 832 832 832 831 831 831 831 831 831 830 830 830 829 829 828 828 827 826 825 824 823 821 820 819 817 816 815 813 812 811 809 808
755 757 760 762 764 766 768 769 770 772 774 776 778 779 781 784 785 787 788 790 792 793 795 798 799 801 802 804 806 809 810 812 813 814 815 816 817 819 820 822 822 822 823 824 825 827 828 829 830 830 831 831 831 831 830 830 830 830 830 830 830 829 829 829 828 827 826 826 825 824 824 823 822 821 820 819 818 817 815 814 813 812 810 809 807
755 757 759 761 763 765 767 769 770 771 773 775 777 779 781 783 784 786 788 789 790 792 794 797 798 800 801 803 805 807 809 810 812 813 814 815 816 818 819 820 820 820 820 822 823 825 826 827 828 828 829 829 829 829 829 829 829 829 829 828 828 827 827 826 825 825 825 824 824 823 823 822 821 820 819 818 817 816 815 814 812 811 809 808 806
755 756 759 761 763 765 767 768 770 771 773 775 776 778 780 781 783 785 787 788 789 791 793 795 798 799 801 802 804 806 807 809 810 811 813 814 815 816 817 818 818 818 819 820 822 823 824 825 826 826 826 826 826 827 827 827 827 826 825 825 825 824 824 824 824 824 823 823 822 822 822 821 820 820 819 817 816 816 814 813 812 811 809 807 806
755 757 759 761 763 764 766 768 769 770 772 774 776 777 779 780 782 784 786 787 788 790 792 795 797 798 800 802 803 805 806 808 809 810 811 813 814 815 816 816 817 817 818 819 821 822 822 823 823 824 824 824 824 825 826 825 824 823 822 822 822 822 822 822 822 822 822 821 821 821 820 820 819 819 818 816 816 815 814 813 811 810 808 807 805
756 758 760 761 763 764 766 767 769 770 772 774 776 777 779 780 782 784 785 786 788 790 792 794 796 797 799 801 802 803 805 807 808 809 811 812 813 814 814 815 816 817 818 819 819 820 820 821 821 821 821 822 822 822 823 822 821 820 820 821 821 821 821 821 821 821 821 820 820 820 819 819 819 818 817 816 815 814 813 812 810 809 808 806 805
757 758 760 761 763 764 766 767 769 770 772 774 776 777 779 781 782 784 785 786 788 790 792 793 795 797 798 800 801 803 804 805 807 808 810 811 812 813 813 814 815 816 816 817 818 818 818 819 819 819 819 820 820 820 820 819 819 819 819 820 820 820 820 820 820 820 819 819 819 818 818 818 817 817 816 816 815 813 812 811 810 809 807 806 804
757 759 760 762 763 765 766 768 769 771 773 774 776 777 779 781 782 784 785 786 788 789 791 792 794 796 797 799 800 802 803 804 805 807 808 809 811 811 811 812 813 814 815 816 816 816 817 817 817 818 818 818 818 818 818 818 818 818 819 819 820 819 819 819 819 819 818 818 817 817 817 817 816 816 815 815 814 813 812 811 809 808 807 805 803
758 759 761 762 763 765 766 768 769 771 773 774 776 777 779 780 782 783 784 786 787 789 790 792 793 795 796 798 799 800 801 803 804 805 807 808 809 809 810 811 812 812 813 814 814 814 815 815 816 816 816 816 816 817 817 817 818 818 818 819 819 819 818 818 818 818 817 817 817 816 816 816 816 815 815 814 813 812 811 810 808 807 806 804 803
Wind_Speed
25 25 22 20 22 20 19 21 19 18 25 29 27 25 23 20 20 20 19 17 16 16 14 14 13 12 12 12 13 13 14 14 14 14 14 13 13 13 12 12 12 11 11 11 10 10 11 12 11 9 8 7 6 6 6 7 7 8 9 9 10 11 11 10 8 9 10 12 13 14 16 18 19 20 23 25 26 25 24 24 24 22 21 23 24
23 24 21 19 23 23 21 22 20 20 26 29 26 26 24 21 20 18 17 17 16 15 15 14 13 13 13 13 13 14 14 14 14 13 14 14 13 13 12 12 12 11 11 10 10 10 11 11 10 8 7 7 7 6 6 7 7 8 9 10 10 10 10 10 10 10 12 13 14 14 15 17 18 20 23 25 26 26 24 24 24 23 22 23 24
22 23 21 20 24 24 21 22 22 22 28 30 27 25 23 20 19 17 18 18 16 15 15 14 14 13 13 14 14 15 15 14 14 14 14 14 13 13 13 12 12 11 11 11 11 11 10 10 8 7 6 6 6 6 6 7 8 8 9 9 9 9 9 10 10 11 13 13 14 15 16 17 18 19 22 24 25 25 24 23 23 23 23 23 23
23 23 24 23 24 23 21 22 23 25 29 30 27 24 21 19 17 17 18 18 17 16 15 14 14 13 14 14 15 15 15 15 15 15 14 14 14 14 13 12 12 11 11 11 11 10 9 9 7 6 6 6 6 7 7 7 8 9 9 8 9 9 9 10 10 11 12 13 13 14 15 16 17 19 21 23 24 23 23 23 22 21 22 23 23
23 24 26 25 24 23 22 23 25 28 30 29 26 23 19 18 17 17 18 18 17 16 15 15 14 13 14 15 15 15 15 15 15 15 15 14 14 14 13 12 12 11 11 11 11 10 9 8 7 6 5 6 6 6 7 8 9 9 9 9 9 9 10 9 10 11 11 12 13 14 15 16 17 18 21 24 23 22 23 23 22 20 21 22 22
22 25 27 25 24 24 23 24 28 30 30 29 26 21 18 17 17 17 18 18 18 17 15 14 14 14 15 15 16 16 16 16 15 15 15 15 14 13 13 13 12 12 12 11 11 9 8 8 6 6 6 6 5 5 5 7 8 9 9 9 10 10 10 9 10 11 10 11 13 14 15 16 17 19 21 24 23 22 22 22 22 21 21 21 22
22 26 28 25 24 25 25 27 30 31 29 27 25 20 18 17 17 17 18 18 18 17 16 15 14 14 15 16 16 16 16 16 15 15 15 15 14 14 13 13 13 12 12 11 10 9 8 7 6 6 6 5 5 4 4 5 7 8 8 9 10 10 10 10 10 11 10 10 12 14 15 16 17 19 21 23 22 21 21 22 22 22 23 22 22
23 27 28 25 24 24 25 27 29 30 28 25 22 20 18 17 16 17 18 17 17 17 16 15 15 15 16 16 16 16 16 15 15 15 15 14 14 14 13 13 13 12 12 11 10 9 8 7 7 7 8 8 8 7 7 6 6 7 8 9 10 10 10 10 11 11 10 10 12 14 15 16 17 19 21 23 22 22 22 22 21 23 24 23 22
23 25 26 25 24 24 25 25 26 29 26 21 20 20 18 17 17 17 18 17 17 16 16 16 15 16 17 17 16 16 15 15 15 15 15 15 15 14 13 13 13 13 13 11 10 9 8 8 9 10 11 11 12 12 11 10 9 8 8 9 10 10 10 10 11 11 10 11 12 13 15 16 17 19 21 23 23 23 23 22 20 22 24 23 21
24 25 25 25 24 25 25 24 25 27 24 20 21 22 19 17 17 17 17 17 17 16 16 16 16 17 18 17 17 16 14 15 16 16 15 15 14 13 13 13 12 12 12 11 10 10 9 10 11 12 12 12 12 12 12 11 11 11 11 11 10 10 10 10 10 11 10 11 12 13 14 15 17 19 20 22 23 23 23 22 21 22 23 22 21
25 25 25 25 25 26 25 24 26 26 22 21 24 24 20 17 17 17 16 17 17 17 16 16 17 17 18 17 17 15 13 16 19 19 17 16 14 13 13 12 11 12 11 11 10 10 9 9 8 7 6 6 8 10 10 10 11 10 10 11 11 11 9 8 9 10 10 10 11 13 13 14 16 17 18 20 22 23 22 21 21 23 23 21 20
26 26 25 25 27 26 25 26 27 25 22 24 26 23 19 17 16 16 16 17 17 17 17 17 17 17 17 18 17 14 14 20 22 20 19 18 15 13 12 12 11 11 10 10 10 9 9 8 6 5 4 3 2 3 5 6 8 8 8 8 10 11 11 8 8 9 9 10 11 12 12 13 14 15 17 19 22 23 22 20 21 23 23 21 20
26 26 26 26 27 26 28 30 28 23 23 26 25 21 18 17 17 16 17 17 17 17 17 17 17 18 18 18 16 14 17 23 24 22 21 20 17 13 11 11 11 11 10 10 9 9 9 8 7 6 5 4 3 2 1 3 4 5 6 5 5 7 10 10 9 9 8 8 9 11 11 12 13 14 16 18 20 21 21 21 21 22 22 20 20
25 25 25 26 26 26 27 29 26 23 24 27 25 21 18 17 17 17 18 17 16 17 17 17 18 18 18 18 16 15 20 26 26 24 22 20 16 12 10 11 10 10 10 9 8 8 8 7 7 6 4 3 4 5 3 0 3 4 4 3 4 4 7 9 9 8 7 7 7 9 9 9 11 12 14 17 19 20 20 21 22 23 22 20 19
24 24 24 24 24 25 25 25 24 25 26 26 24 20 18 18 18 18 19 18 17 17 17 17 18 17 18 18 15 16 22 26 25 24 23 20 14 10 9 11 10 10 9 8 7 7 7 6 7 6 4 4 5 5 5 3 1 3 3 2 3 3 2 6 8 8 6 5 5 7 7 8 10 11 12 15 18 19 19 19 20 21 22 19 17
22 21 21 22 22 24 25 25 24 25 25 23 21 20 19 18 18 19 19 18 17 16 16 17 17 17 18 17 16 18 24 25 24 24 23 19 14 9 9 10 9 9 9 8 7 7 6 6 6 5 5 5 5 5 5 5 3 3 2 2 3 2 2 7 10 10 9 7 7 9 9 10 12 11 10 13 18 20 19 17 18 19 20 18 17
19 19 20 20 21 22 27 29 26 24 23 22 21 21 20 19 19 19 19 18 17 17 17 17 17 18 18 17 17 22 26 25 24 25 24 20 14 9 8 9 9 9 9 8 8 7 6 7 7 5 5 5 5 5 6 6 3 2 2 2 3 3 4 9 10 11 12 10 9 11 10 10 12 11 9 11 17 20 18 17 19 19 18 17 16
19 19 19 20 21 22 25 28 27 24 22 21 21 20 20 20 19 19 19 18 17 17 16 17 17 18 18 17 18 24 28 26 25 26 27 23 17 11 9 9 9 9 9 8 7 6 8 10 9 6 6 7 6 6 6 5 3 2 2 3 4 3 5 9 10 10 12 12 11 11 10 12 14 12 11 12 14 16 16 17 18 19 18 17 17
21 22 22 22 23 22 22 24 26 26 23 22 22 20 20 20 19 18 19 18 17 16 16 17 17 17 17 16 19 25 28 27 25 26 27 24 20 14 10 9 10 10 9 9 8 6 9 12 11 8 8 8 7 6 6 5 2 1 3 3 3 4 7 10 10 10 12 12 11 10 10 11 12 12 13 12 12 14 16 16 17 17 17 18 18
20 21 23 23 22 21 20 21 24 25 23 22 21 19 20 20 19 19 18 17 16 16 15 16 16 16 15 16 18 22 26 28 25 25 25 23 20 14 9 8 11 11 10 10 9 8 9 10 10 10 8 8 7 6 5 5 4 1 3 3 3 5 8 9 10 12 12 11 11 10 9 10 10 11 13 12 12 14 16 15 16 16 16 17 18
21 21 21 20 19 19 18 19 20 20 19 20 19 19 19 19 18 19 18 18 18 17 16 16 16 15 13 14 15 16 22 27 25 23 25 24 20 15 8 7 10 11 10 11 11 10 10 10 10 10 9 8 8 7 5 5 4 1 2 3 3 6 8 9 11 13 11 10 10 10 10 10 10 11 13 13 13 15 16 15 16 16 16 16 17
25 24 21 18 17 18 17 18 19 18 18 20 20 18 17 16 18 19 20 20 20 19 18 17 16 14 13 13 13 12 18 25 25 23 25 24 21 17 10 6 9 11 10 11 11 10 10 12 12 10 9 9 8 7 6 5 4 3 3 3 4 6 6 8 11 11 9 9 10 10 10 11 11 12 13 13 13 15 16 16 16 16 16 16 16
26 24 20 18 18 19 18 19 19 17 17 20 21 19 17 17 18 19 18 18 18 17 17 16 15 15 14 13 13 13 16 23 24 23 25 25 23 19 13 8 9 10 8 9 11 10 9 11 11 10 9 9 8 7 6 5 5 4 3 3 3 5 6 9 10 9 8 8 9 9 9 10 11 12 13 14 14 15 16 16 16 15 15 16 16
29 27 23 20 19 19 18 18 17 16 18 20 21 20 19 18 17 17 16 17 17 16 16 16 15 15 15 14 15 15 16 20 23 23 24 24 24 21 15 11 12 11 5 3 5 7 8 11 10 9 9 9 8 7 7 6 5 5 4 3 3 3 7 9 8 7 7 8 8 8 9 10 10 12 13 13 14 14 15 16 16 15 16 16 16
31 28 21 18 19 20 20 19 17 16 18 19 18 18 18 17 16 16 16 17 17 17 16 16 16 16 16 16 16 17 17 18 21 23 23 22 22 21 17 14 15 15 10 3 0 2 6 9 9 8 8 8 8 6 6 5 5 5 4 3 3 6 8 8 6 6 7 7 7 8 9 9 10 11 12 13 13 13 14 15 15 15 16 16 15
29 26 21 19 20 20 20 19 16 16 18 17 16 17 17 17 16 16 17 17 17 17 17 17 17 16 17 17 17 18 18 18 19 22 24 23 21 21 18 16 16 17 16 10 5 2 3 6 8 8 8 8 7 6 5 6 8 8 5 3 5 7 7 5 5 7 7 7 7 8 9 10 10 11 11 12 13 13 14 15 15 15 15 16 15
28 25 22 22 21 20 20 19 17 17 18 17 16 16 17 17 16 17 18 18 17 17 17 17 18 17 17 18 18 18 19 18 19 21 25 26 25 23 21 19 17 17 17 14 10 7 5 7 10 10 8 8 8 8 9 10 11 11 9 8 8 8 5 3 5 6 6 7 8 8 9 10 10 11 12 12 13 13 13 14 15 15 15 16 15
24 22 21 22 21 20 21 20 19 18 18 17 17 16 17 17 17 18 18 18 18 18 18 17 18 18 17 17 17 17 18 20 20 21 24 25 25 23 22 21 19 17 16 13 11 10 9 10 11 11 9 9 9 10 11 12 12 12 11 11 9 8 7 7 8 8 6 6 7 8 9 10 10 11 12 12 13 14 14 14 15 15 15 16 15
21 20 21 23 22 21 22 22 20 19 18 18 17 16 17 18 17 16 18 18 17 17 17 17 17 17 16 16 17 17 18 20 21 21 23 25 24 22 21 20 18 17 16 15 13 11 11 11 10 11 11 11 11 11 12 12 13 12 11 10 8 8 9 9 9 8 5 6 7 8 9 10 11 11 12 12 14 14 14 14 15 15 15 15 15
20 19 22 25 25 23 23 22 20 19 19 19 17 16 17 19 18 17 18 18 18 18 16 15 15 16 15 15 18 19 18 19 21 21 23 25 24 22 20 21 19 17 17 17 15 11 11 12 12 12 12 12 12 12 12 11 11 10 10 9 9 9 8 8 8 6 5 6 8 9 9 10 11 12 12 13 15 15 15 15 15 15 15 15 16
19 19 20 23 25 25 24 22 19 18 20 20 18 16 16 17 17 17 18 20 20 20 17 14 15 17 13 9 14 18 16 16 20 22 23 25 25 22 19 21 21 17 16 17 16 12 10 11 11 12 12 13 12 12 11 10 9 9 9 9 9 9 8 8 8 7 6 8 9 9 9 10 11 12 13 13 15 15 15 15 15 15 15 16 17
19 18 18 22 26 26 24 22 20 19 20 20 19 18 17 15 14 14 16 20 21 21 19 16 15 17 12 5 8 13 11 11 18 23 23 25 26 22 19 19 20 18 16 16 15 13 10 11 11 12 12 12 12 11 10 10 10 10 10 10 10 9 9 9 8 7 7 9 8 9 10 11 12 12 13 14 14 14 14 14 14 15 16 16 16
19 18 18 23 27 25 22 21 20 19 20 20 19 19 18 16 14 14 15 18 20 22 22 18 15 16 13 6 7 10 9 10 15 19 20 22 25 23 20 18 18 19 17 14 13 12 12 12 12 12 12 12 12 11 11 11 11 11 11 11 10 10 10 9 8 8 9 10 10 10 11 11 12 13 14 14 14 13 13 14 14 14 15 16 15
19 18 20 24 26 24 21 20 20 20 21 21 21 21 19 17 17 17 16 16 16 17 19 19 16 15 13 8 7 9 9 8 10 12 15 18 21 22 22 19 17 18 17 14 12 12 13 13 13 13 13 12 12 11 11 11 11 11 11 10 10 9 10 9 9 9 10 10 10 10 11 11 13 14 14 14 14 13 13 13 14 14 15 15 15
18 20 22 24 24 22 20 21 21 20 21 22 22 21 19 17 18 19 17 16 15 13 14 17 17 16 14 10 8 8 7 6 7 7 9 13 16 19 19 17 15 15 15 15 14 13 13 13 13 13 12 12 11 11 10 10 11 11 11 10 10 10 10 10 10 10 10 10 10 10 12 13 14 14 14 14 14 14 13 14 14 15 14 14 15
15 18 22 22 20 19 19 20 20 19 19 20 19 18 19 20 19 18 16 16 16 14 12 14 16 16 15 13 10 8 7 7 7 5 5 6 11 14 14 13 12 12 13 14 15 14 14 14 14 13 13 12 11 11 11 11 11 11 11 10 10 10 10 10 10 10 9 9 10 12 13 15 15 14 14 14 14 14 14 15 15 15 14 15 16
14 15 18 19 18 17 16 17 18 17 17 18 17 17 19 19 17 15 14 14 14 14 14 15 17 18 17 15 15 14 13 13 11 8 4 3 6 10 11 10 10 11 11 12 13 14 14 14 14 14 13 12 11 11 11 10 10 10 10 11 11 11 11 10 9 9 9 11 13 15 15 15 15 15 15 16 16 16 16 16 16 16 17 18 18
14 15 17 17 17 16 16 16 16 16 16 16 15 16 17 16 15 14 14 15 16 17 16 17 20 22 21 18 17 17 18 17 15 12 8 5 5 8 10 10 10 10 10 11 12 13 14 15 15 14 14 13 12 11 10 10 10 10 11 11 11 12 12 11 10 11 14 16 17 16 15 15 15 15 16 17 18 18 18 17 17 17 18 19 18
13 14 16 18 17 16 16 17 16 15 15 15 14 14 15 15 15 15 14 14 15 16 16 17 19 22 23 22 20 19 19 18 16 15 13 11 11 12 13 12 11 11 10 10 11 11 12 13 13 13 13 13 11 10 9 10 10 11 11 11 11 11 10 11 12 14 15 15 15 15 15 16 17 17 17 18 18 18 18 18 18 18 19 19 18
12 11 14 18 17 16 16 16 15 14 15 15 15 15 15 14 14 15 15 15 15 15 14 15 16 18 22 25 24 23 22 21 20 19 17 16 16 16 18 18 16 13 11 11 11 11 11 11 12 12 12 10 9 9 10 11 11 11 11 10 10 11 12 13 14 14 14 14 15 16 17 18 18 18 18 18 18 19 19 19 19 19 19 18 18
11 11 14 17 17 15 15 16 15 14 16 17 17 16 14 13 13 14 13 13 13 13 13 13 13 15 20 24 25 26 26 24 22 20 19 18 19 19 20 21 20 16 13 12 12 12 12 12 12 11 10 9 9 10 10 11 10 10 10 9 10 12 14 15 15 15 15 16 17 17 18 18 18 17 17 18 20 20 19 18 18 17 17 17 18
11 11 13 16 16 16 16 15 14 13 15 17 16 14 12 11 12 12 13 14 14 13 12 12 12 13 18 21 23 23 22 19 18 17 17 18 20 20 19 20 20 17 14 12 12 12 13 13 12 10 10 10 11 11 11 10 9 9 10 11 13 14 15 16 16 16 16 15 15 15 16 16 15 16 17 19 19 18 16 16 16 16 16 17 17
11 11 13 15 16 15 14 14 13 13 14 14 13 12 12 12 12 12 13 13 13 13 12 11 10 12 16 19 21 20 16 13 12 14 14 15 18 18 16 17 17 15 13 13 12 12 12 12 12 11 11 10 10 9 9 9 9 10 12 13 14 15 15 14 14 13 12 12 13 15 16 16 15 15 16 16 15 15 14 15 15 15 15 16 17
11 12 13 14 14 12 12 13 13 14 15 14 13 12 12 12 11 11 11 12 13 12 11 10 10 11 16 19 20 18 15 11 10 11 12 13 14 15 15 15 14 13 12 12 13 13 13 12 11 11 10 10 9 9 10 10 11 11 12 12 11 11 10 9 10 10 12 14 16 16 15 14 13 13 13 13 14 14 14 14 14 15 15 16 17
11 12 13 13 12 11 11 11 12 13 14 14 13 12 11 10 10 10 11 11 12 12 11 11 10 11 16 19 19 19 17 15 13 12 12 12 13 14 14 14 13 11 12 13 13 13 12 11 11 12 12 13 13 14 14 13 10 8 7 7 8 8 8 10 12 13 13 14 14 12 11 10 11 11 12 12 12 13 14 14 15 16 16 16 16
12 13 14 13 12 12 12 11 11 12 12 12 12 11 10 10 11 10 10 11 11 11 11 10 9 10 12 15 17 17 18 18 17 17 16 15 15 15 15 13 12 11 11 12 12 11 11 12 13 14 14 15 15 13 9 5 4 7 10 12 13 13 14 13 12 11 10 10 9 8 9 10 11 11 11 12 12 13 14 15 15 15 15 16 16
11 12 13 12 12 12 12 11 10 10 10 10 10 9 9 9 10 9 9 10 11 10 10 9 9 9 9 10 12 15 16 16 16 16 17 16 16 16 13 11 9 9 8 9 10 11 13 13 13 13 13 13 11 8 4 4 7 12 16 16 15 15 14 12 10 9 9 9 8 7 8 10 10 10 11 13 13 14 14 14 14 14 15 16 17
11 11 12 12 11 11 11 11 11 11 9 9 9 9 8 8 9 8 9 10 11 10 10 9 8 9 9 9 10 11 12 13 13 13 13 13 12 11 9 8 8 9 10 10 11 11 11 10 9 9 11 11 9 8 8 10 13 15 15 14 11 10 9 8 7 7 7 7 7 6 7 9 9 10 11 12 13 13 13 13 14 15 15 16 17
10 11 11 12 11 10 11 11 12 11 9 9 9 8 8 9 8 8 9 10 11 10 10 9 8 8 9 9 10 10 10 10 11 11 11 9 8 8 8 9 10 10 10 10 9 9 9 9 9 10 11 10 11 12 13 13 14 13 12 10 8 7 6 5 6 6 7 7 6 5 6 8 9 9 10 12 11 11 12 12 13 14 15 15 16
10 11 11 11 10 10 10 10 10 9 9 9 9 9 9 9 9 9 9 10 10 9 9 9 8 9 9 9 9 9 10 10 11 10 10 10 9 9 10 11 10 9 8 9 10 10 11 11 11 12 11 11 11 12 12 12 10 8 7 6 5 4 5 5 5 6 7 7 6 5 5 8 9 9 9 10 9 10 11 12 13 14 14 14 15
11 11 11 10 10 10 10 10 10 10 10 10 10 10 10 10 10 10 10 10 9 8 8 8 8 8 8 8 9 10 11 11 11 10 10 11 11 11 10 9 7 8 11 13 12 11 11 10 11 10 10 10 10 9 8 7 6 4 4 3 3 4 4 5 6 7 7 7 6 5 6 7 8 8 8 8 9 10 11 12 12 13 13 14 14
Wind_Direction
172 162 157 162 165 163 162 164 162 159 165 169 166 159 156 155 154 152 151 150 149 150 153 152 149 145 140 140 138 135 133 130 128 126 123 121 119 118 117 114 110 108 107 103 99 95 89 85 81 73 67 65 58 53 48 40 40 39 32 30 27 18 8 0 352 346 346 347 344 344 347 347 347 350 349 346 346 348 350 351 351 353 354 351 348
167 159 155 159 164 165 163 161 159 160 168 170 164 157 156 154 151 150 148 148 149 153 155 151 148 145 142 142 142 139 136 134 132 130 127 124 122 120 119 117 115 112 111 108 101 95 91 88 84 75 69 65 58 53 46 39 40 37 32 28 20 11 5 358 351 342 338 341 344 345 349 350 349 352 351 347 345 348 351 353 353 354 355 352 348
162 159 158 159 163 163 161 160 158 160 167 169 164 159 157 154 151 150 148 148 152 154 153 151 149 147 145 146 145 142 139 137 135 133 130 127 125 123 122 120 119 117 115 111 104 98 93 90 86 79 75 70 62 54 45 39 38 34 29 24 13 1 357 354 347 338 333 336 343 346 349 352 351 352 353 350 346 348 351 354 354 352 352 351 347
158 163 165 162 162 161 159 158 156 159 166 168 164 159 155 153 153 152 151 151 153 154 153 152 151 148 148 148 146 145 142 140 138 135 133 131 128 127 127 124 122 121 118 112 105 101 98 94 89 86 84 76 68 59 50 42 39 34 25 17 9 359 352 351 345 336 330 332 342 349 350 351 352 352 352 351 349 349 350 351 352 352 350 348 347
155 164 165 161 161 160 157 155 157 162 167 167 162 157 153 153 155 156 155 152 152 153 153 152 152 151 151 150 148 147 145 143 140 138 135 134 132 131 131 128 126 122 117 111 107 103 99 95 91 90 87 80 74 63 53 46 41 34 23 13 6 358 351 348 343 335 331 336 344 350 352 353 352 353 354 352 349 349 348 349 350 350 348 346 346
155 164 165 161 160 158 154 155 161 165 168 166 160 155 152 154 157 158 155 152 152 153 154 154 154 154 153 152 150 148 147 145 143 140 139 137 136 134 132 131 127 123 117 111 108 105 101 98 94 89 84 81 75 63 56 51 43 34 21 10 4 357 351 348 344 338 337 344 349 351 354 356 354 353 355 353 349 348 347 346 347 349 348 347 347
158 166 166 161 159 157 154 157 163 167 168 165 159 153 152 155 159 158 153 152 153 154 155 156 155 155 154 152 151 149 147 147 145 144 143 141 139 137 134 133 128 124 119 113 110 107 103 99 89 83 82 79 71 64 62 56 44 36 23 9 2 358 353 349 346 344 345 351 356 355 354 356 356 353 352 351 349 350 349 345 344 347 348 347 349
161 166 165 160 157 156 156 160 166 169 166 161 158 154 153 157 158 155 152 153 156 157 156 156 155 155 155 153 152 151 149 149 148 148 147 144 142 139 137 135 130 125 120 116 114 111 105 98 92 97 104 101 94 93 96 87 58 39 25 12 6 1 356 353 351 350 351 356 359 358 355 356 356 352 350 351 351 349 348 345 342 343 345 345 349
163 165 163 158 155 154 155 159 167 169 163 157 155 155 155 157 156 153 153 156 158 158 157 156 155 155 156 154 153 152 151 152 154 153 150 146 144 142 139 136 132 127 124 121 120 116 110 108 110 111 110 104 97 96 97 93 79 60 39 23 14 5 359 357 357 353 352 358 2 359 357 357 356 353 351 351 349 344 342 342 341 342 343 343 347
163 164 161 157 155 154 155 157 162 164 161 156 156 155 155 157 155 154 156 158 159 158 157 158 157 156 157 155 153 153 153 157 160 157 152 148 145 142 140 137 134 131 130 129 126 123 121 120 117 109 99 91 88 87 87 85 80 73 59 45 34 18 4 358 360 356 353 358 2 359 358 358 355 354 351 346 343 341 341 342 343 344 345 344 346
163 162 160 156 156 157 158 159 159 160 159 159 160 159 156 156 155 156 158 159 159 159 159 159 159 159 158 156 155 153 156 163 162 156 152 149 146 143 141 140 139 137 136 137 137 135 136 134 123 104 89 82 75 70 72 77 74 69 62 52 43 33 21 4 356 356 354 357 360 359 359 355 351 352 349 343 341 341 341 342 344 346 347 346 348
162 162 160 159 160 161 160 159 158 158 160 162 162 160 157 157 159 162 164 162 159 160 161 160 160 161 160 158 157 155 161 168 164 157 154 150 144 143 145 144 144 144 144 147 148 146 147 146 136 128 137 143 103 44 42 52 50 46 42 37 32 29 27 21 10 1 351 348 355 0 357 351 349 350 348 342 339 339 340 342 345 346 346 346 350
162 161 162 163 164 162 159 159 158 157 160 162 160 158 159 164 168 171 171 166 162 163 163 161 162 163 161 161 159 156 165 170 166 160 156 150 144 143 148 150 148 149 151 153 154 155 153 149 144 142 142 138 147 174 333 352 356 4 4 355 357 8 14 19 20 12 357 343 348 356 354 348 346 345 344 340 338 338 339 339 343 346 343 344 350
163 161 162 165 163 158 156 158 158 157 160 162 161 160 165 171 174 175 175 172 167 166 164 162 163 164 164 164 159 156 167 172 169 163 156 150 146 143 147 153 149 146 152 155 157 161 159 155 153 150 148 149 161 166 163 242 322 326 324 301 277 303 356 7 6 3 358 344 342 348 349 346 340 335 337 341 341 339 336 334 340 344 340 340 348
162 159 159 160 159 157 155 155 156 159 162 163 163 165 171 175 176 175 177 177 172 168 165 164 165 165 166 165 156 156 169 173 171 165 156 151 149 139 140 150 146 144 153 155 158 163 159 154 153 148 149 161 161 152 143 134 65 346 330 319 297 274 325 352 355 2 356 336 333 337 334 338 338 331 333 343 346 340 332 331 337 340 339 339 347
155 152 150 152 154 157 158 157 155 158 162 163 166 172 177 178 178 177 178 179 174 168 166 167 167 166 167 165 157 158 168 172 170 165 159 153 147 135 139 149 147 150 156 155 159 162 157 156 158 157 161 163 158 146 127 113 81 360 336 348 344 324 319 330 340 355 352 335 330 329 326 333 339 335 335 348 354 347 336 336 340 341 342 342 347
151 147 147 152 154 156 161 164 161 159 163 167 171 178 182 181 180 180 179 179 175 169 168 169 168 169 169 165 159 162 168 172 170 166 161 154 144 136 152 160 157 160 161 161 165 167 172 174 162 160 178 176 163 154 132 104 67 349 334 347 335 337 342 329 325 334 334 327 326 328 330 337 340 337 336 347 356 354 345 343 345 344 344 343 345
152 151 151 153 155 159 165 167 164 162 166 171 176 183 185 182 181 182 182 181 175 169 169 168 168 171 170 164 164 168 172 174 173 169 166 161 151 149 169 173 167 168 167 168 175 182 191 183 161 152 186 187 170 162 151 124 74 353 322 322 321 331 340 330 322 324 323 321 326 333 343 350 350 350 347 345 354 357 349 344 344 344 345 343 343
163 163 164 161 160 164 167 167 166 167 170 176 182 184 183 182 181 182 183 180 174 171 171 168 167 169 166 165 173 177 176 177 177 174 170 164 154 155 175 181 174 173 175 178 181 186 194 190 179 176 187 184 174 168 163 151 121 10 320 314 323 331 332 327 320 316 319 327 337 342 347 353 355 356 352 349 354 356 348 343 343 343 342 341 341
167 166 169 167 164 164 166 167 168 170 174 181 184 182 180 181 181 181 182 179 171 167 166 162 160 161 160 165 174 180 181 181 181 178 172 163 158 164 185 191 180 178 183 187 187 181 182 192 199 200 193 184 180 173 170 173 163 114 327 320 325 323 327 332 321 306 309 327 339 340 345 351 352 355 356 355 357 353 348 347 347 343 337 338 341
162 159 159 162 164 163 162 163 165 167 172 177 180 179 179 179 178 178 176 168 159 156 155 154 156 159 163 168 170 177 186 186 184 181 174 168 167 174 187 191 183 184 188 191 193 193 188 190 201 206 199 190 185 180 183 188 172 164 297 299 313 319 325 333 324 311 314 332 340 340 347 350 351 358 360 357 355 353 352 352 349 344 339 339 338
163 154 146 147 156 158 157 160 161 160 163 169 174 176 175 173 172 169 163 157 154 155 157 161 164 165 169 173 171 177 189 191 189 185 179 175 175 181 194 196 179 183 196 197 197 200 193 186 194 206 205 195 190 190 194 195 189 204 251 274 310 331 330 317 311 314 327 339 339 342 348 350 353 360 358 353 352 353 354 352 349 346 345 343 336
168 164 161 160 160 160 161 163 162 158 159 165 170 171 168 166 168 165 159 158 162 166 168 171 173 171 172 177 178 178 186 191 192 187 183 181 181 187 201 206 182 182 202 208 206 207 194 182 193 211 211 198 195 197 198 206 217 223 243 274 310 345 335 310 304 314 330 335 336 343 348 349 354 356 352 350 350 351 353 353 350 349 348 343 338
176 178 177 171 163 159 158 160 160 158 156 160 165 168 166 164 166 168 169 172 175 176 177 178 179 180 180 182 184 184 184 189 193 191 186 185 187 192 201 203 193 192 199 206 208 206 189 184 197 216 214 203 200 203 207 218 228 233 257 279 290 317 312 305 309 319 325 330 337 342 346 348 351 351 347 345 346 348 350 351 350 350 349 344 342
173 172 167 162 160 158 156 157 160 160 159 161 164 165 163 162 166 170 175 179 180 181 182 184 186 187 187 187 188 190 188 188 193 195 192 188 190 196 201 202 200 199 200 208 59 133 162 180 198 217 219 210 205 208 217 237 248 245 254 268 275 283 290 300 318 319 319 332 337 336 342 346 345 343 340 338 342 345 346 347 347 349 350 347 346
167 165 161 161 158 153 152 156 159 160 161 164 165 163 162 166 171 174 178 182 185 186 186 188 190 191 191 192 192 192 192 191 192 195 198 199 197 199 202 204 205 206 212 225 238 183 171 198 215 229 233 223 215 215 227 254 263 256 248 250 269 278 284 304 325 316 314 327 330 329 336 338 336 335 334 335 342 345 343 344 344 345 349 348 348
166 166 165 165 161 154 153 157 161 162 163 165 166 166 169 173 177 180 183 186 189 191 190 191 192 193 194 195 194 193 194 194 192 192 197 201 203 204 206 209 212 214 220 229 233 229 232 236 233 236 239 236 232 227 226 240 252 252 246 245 251 260 266 292 310 304 304 315 322 326 330 330 331 333 333 336 342 342 341 341 340 341 345 345 346
163 162 160 160 159 158 160 163 163 164 167 170 172 173 177 182 186 188 189 189 189 192 194 193 194 197 197 196 195 195 196 198 196 192 192 195 199 202 206 209 212 216 219 222 223 222 227 234 236 234 235 238 239 234 231 235 240 245 246 246 249 248 243 248 260 265 277 305 316 319 322 325 328 329 331 337 341 339 338 340 337 336 339 340 344
158 156 156 159 161 162 166 168 166 165 168 173 178 183 186 188 190 190 192 194 193 194 196 196 197 199 200 197 197 198 200 201 200 195 191 191 193 196 200 203 205 210 211 209 210 212 213 216 221 221 222 227 228 230 234 232 230 236 239 240 253 262 253 248 254 256 270 303 310 312 317 321 324 326 329 335 338 336 334 334 333 333 334 337 341
154 155 159 163 165 165 166 166 166 167 170 173 177 182 185 189 192 193 193 195 196 197 197 195 194 198 202 204 205 206 205 203 201 196 190 188 190 194 200 200 200 205 206 202 205 213 211 211 216 219 221 225 225 229 235 233 232 240 238 229 241 258 258 260 267 267 277 296 297 301 310 313 315 321 327 330 331 329 328 330 331 331 333 337 341
157 159 162 167 170 168 166 166 167 168 172 177 179 177 176 182 190 193 193 193 195 197 196 191 189 195 202 204 203 206 208 204 199 192 184 184 189 194 197 196 197 201 199 195 203 214 215 215 223 225 224 228 229 231 236 236 237 246 248 241 242 244 246 255 262 264 275 285 286 293 305 309 311 317 320 321 320 320 323 328 330 331 334 340 341
162 165 166 171 175 172 168 169 171 173 177 183 185 180 176 177 178 179 185 190 192 196 198 194 192 201 206 181 170 188 194 191 191 187 182 184 191 196 195 194 197 199 193 189 200 216 220 223 232 234 231 234 236 234 238 241 241 240 242 245 246 244 245 250 251 257 275 285 290 297 300 300 303 308 309 311 312 315 321 326 327 330 336 340 341
165 165 164 168 173 173 172 173 175 177 180 185 185 184 184 185 176 165 170 181 189 196 200 199 199 206 208 176 144 170 178 170 176 182 185 190 196 199 199 196 197 200 197 194 203 219 224 228 235 236 234 236 237 235 237 242 244 244 244 244 245 246 247 246 243 250 265 273 278 285 290 294 302 307 307 310 312 313 317 321 323 328 335 338 338
169 166 166 170 172 173 175 178 177 178 182 186 189 188 186 185 181 175 174 179 185 192 200 202 203 206 204 180 144 161 179 178 176 183 191 197 202 205 206 204 204 205 206 207 216 225 228 232 239 241 239 238 238 237 237 239 242 247 249 249 251 253 250 246 245 251 261 268 274 285 297 304 307 308 308 308 310 312 315 318 322 327 332 332 330
177 171 171 174 175 175 177 179 181 183 184 187 193 193 184 180 185 187 182 176 174 180 194 202 204 203 201 187 153 141 158 178 183 185 190 197 204 208 209 209 211 213 214 217 224 228 230 234 242 247 246 245 243 241 241 242 245 248 250 251 254 256 253 252 255 261 268 276 285 295 304 305 304 304 305 306 309 312 314 316 320 323 324 321 320
173 164 166 171 173 176 177 178 181 186 185 187 193 190 179 180 191 192 181 175 179 182 182 185 190 194 196 193 179 159 155 161 164 160 161 181 198 204 204 205 209 213 216 220 224 230 236 240 245 249 249 248 248 246 244 244 245 248 251 253 254 256 256 256 261 267 272 283 293 299 300 298 296 296 294 295 300 304 305 309 314 315 312 309 308
173 162 164 169 172 174 175 177 183 187 186 187 187 180 176 183 190 185 171 167 169 163 153 156 170 181 187 189 188 184 179 173 170 171 169 171 192 200 204 210 217 217 218 222 224 228 236 242 247 252 254 253 252 250 248 247 247 248 251 252 254 259 262 263 272 283 287 288 289 289 286 286 288 290 292 296 302 306 306 307 307 303 300 301 301
180 172 168 171 173 172 174 182 188 186 181 180 179 177 179 180 171 160 153 150 156 163 164 165 172 179 181 182 183 185 184 180 177 183 198 215 221 215 214 222 232 229 227 230 229 228 233 238 242 248 252 254 255 255 255 255 257 257 256 255 254 256 258 262 272 280 277 274 275 277 282 288 294 298 299 302 304 305 305 305 302 298 297 298 298
186 181 174 175 178 177 178 184 184 177 175 178 177 176 178 173 161 156 154 157 172 187 185 173 172 178 181 182 183 184 184 183 182 188 201 217 231 233 227 226 231 236 238 242 244 241 240 241 242 246 249 251 253 256 258 261 264 264 265 266 266 266 266 267 269 270 271 274 281 288 294 298 300 300 300 299 300 301 303 304 303 299 295 294 294
180 172 168 173 179 183 182 179 176 173 177 184 184 181 177 172 170 171 171 172 183 193 185 172 171 177 181 185 188 186 185 186 189 193 201 212 223 231 231 227 226 229 235 245 254 257 255 253 251 251 253 253 254 257 259 261 263 266 268 272 276 277 277 275 273 273 278 283 287 291 293 295 297 298 297 297 299 302 303 302 299 295 293 295 299
172 163 165 171 178 182 180 177 179 180 178 181 186 186 182 179 178 178 177 179 182 184 181 178 179 180 183 190 194 192 190 191 193 194 202 214 223 229 231 228 224 224 228 238 250 257 257 257 256 255 257 259 258 259 260 260 262 268 273 276 277 276 276 275 273 273 277 280 284 289 292 293 294 295 296 297 300 301 300 297 297 299 302 304 306
175 164 165 172 178 181 179 178 181 179 173 176 185 187 184 188 188 179 174 177 181 181 182 182 182 185 189 195 198 197 194 194 193 191 200 216 225 229 231 228 224 223 226 233 242 247 250 253 255 256 258 259 257 258 263 267 272 278 280 278 276 273 272 272 273 276 282 287 291 290 288 288 290 294 298 300 300 299 299 300 303 306 307 306 308
159 153 160 168 174 177 176 173 170 169 169 175 180 177 178 189 191 178 169 171 174 175 178 179 178 184 191 197 200 199 194 192 194 194 199 214 225 228 228 224 220 219 223 230 236 240 244 248 251 252 254 256 256 258 262 266 271 275 276 275 274 273 272 273 278 284 289 289 285 282 283 288 295 298 299 300 302 303 306 308 308 309 309 309 311
138 143 154 160 159 159 161 160 160 162 167 171 171 173 181 191 189 176 169 168 167 168 174 177 173 175 183 190 196 198 195 194 196 194 196 206 215 217 216 216 216 218 222 226 229 233 237 242 245 246 246 247 253 259 263 266 269 273 274 274 277 281 284 283 278 275 277 279 283 289 296 301 303 303 303 306 310 312 312 312 313 313 313 312 310
151 148 149 150 149 148 150 151 150 153 159 164 168 173 180 184 183 180 176 169 165 167 175 178 171 168 177 186 192 197 201 204 202 196 192 195 201 207 214 220 222 222 222 223 226 230 233 234 237 240 244 252 262 268 272 275 275 270 264 263 263 263 261 258 260 269 280 289 297 306 312 312 312 312 312 314 316 317 316 316 316 315 313 312 311
164 159 152 149 149 149 149 149 147 147 152 161 167 171 174 179 184 184 175 165 160 159 164 170 167 165 176 189 198 203 209 214 215 211 207 208 215 223 229 230 226 224 226 227 227 226 226 230 238 247 255 264 270 272 274 273 252 238 239 242 244 246 250 256 266 279 291 297 303 312 317 317 317 317 317 318 321 321 318 316 315 314 314 314 313
151 155 154 151 150 151 152 153 151 149 153 161 164 164 166 173 174 167 154 150 152 151 154 163 169 166 171 187 202 210 214 218 220 219 219 223 230 236 238 233 222 215 215 216 217 224 235 246 254 259 262 262 260 252 223 190 213 234 244 247 250 255 263 270 276 281 285 291 302 316 324 323 321 322 322 322 321 319 317 315 316 317 318 317 315
136 142 145 144 143 143 144 147 146 141 140 145 147 144 143 146 147 145 144 147 147 147 150 156 161 164 171 188 206 215 216 217 219 221 224 227 230 229 223 211 200 199 205 215 225 236 246 251 252 254 254 248 233 212 200 206 221 236 248 258 265 273 280 284 285 288 298 308 315 325 332 329 324 324 325 323 320 318 319 320 321 321 320 317 315
139 139 139 140 140 138 141 147 150 144 138 139 142 142 144 146 145 145 149 149 145 146 152 158 163 175 191 206 215 216 214 215 222 224 221 214 206 197 194 201 210 218 223 226 228 228 226 224 228 236 241 235 221 211 213 221 231 243 257 272 284 291 297 301 303 309 320 326 327 334 339 330 322 320 322 322 322 324 326 325 324 322 320 317 315
144 145 145 145 143 138 135 141 145 143 142 144 147 147 149 151 149 148 149 150 150 156 167 177 188 200 210 216 216 214 214 219 224 221 208 197 191 195 208 223 233 229 208 196 200 211 220 226 231 234 235 233 229 227 229 235 243 255 270 282 291 296 305 316 324 331 338 340 343 348 340 327 322 325 327 328 330 332 330 327 325 323 320 318 318
136 139 143 143 142 140 141 144 149 151 151 153 156 155 154 153 154 156 156 156 160 170 181 190 199 204 206 208 210 212 212 212 209 201 194 195 200 210 221 225 211 186 180 187 200 215 225 229 230 231 234 236 237 236 237 241 247 257 265 275 294 314 327 337 343 345 347 350 354 355 345 335 336 340 340 337 337 335 331 328 328 325 322 319 320